Regional Weather Roundup
Issued by NWS

Home | Current Version | Previous Version | Graphics & Text | Print | Product List | Glossary On
Versions: 1 2 3 4 5 6 7 8 9 10 11 12 13 14 15 16 17 18 19 20 21 22 23 24 25 26 27 28 29 30 31 32 33 34 35 36 37 38 39 40 41 42 43 44 45 46 47 48 49 50
000
ASUS44 KMEG 230810
RWRTN
TENNESSEE HOURLY STATE WEATHER ROUNDUP
NATIONAL WEATHER SERVICE MEMPHIS TN
300 AM CDT THU MAR 23 2017

TNZ002-004-019-021-049-052-054-088>092-230900-
WEST TENNESSEE

CITY           SKY/WX    TMP DP  RH WIND       PRES   REMARKS
MEMPHIS INTL   CLEAR     51  25  35 E9        30.26F
NWS MEMPHIS      N/A     49 N/A N/A MISG        N/A
JACKSON        CLEAR     46  25  43 E7        30.27F
DYERSBURG      PTCLDY    47  27  45 E3        30.29S
SOMERVILLE     CLOUDY    48  25  40 VRB5      30.24F
BOLIVAR        CLOUDY    46  25  42 NE5       30.26F
PARIS          CLEAR     39  21  48 E8        30.28F WCI  34
HUNTINGDON     CLOUDY    45  23  42 E7        30.27F
SAVANNAH       MOCLDY    45  27  49 CALM      30.27S
$$

TNZ008-025-027-028-033-062-065-066-230900-
NORTH MIDDLE TENNESSEE

CITY           SKY/WX    TMP DP  RH WIND       PRES   REMARKS
NASHVILLE      CLEAR     40  23  50 NE6       30.32S
PORTLAND       CLEAR     37  23  56 E5        30.31F WCI  34
CLARKSVILLE    CLEAR     37  23  56 NE6       30.33F WCI  32
SMYRNA         PTCLDY    38  27  64 N3        30.33S
COOKEVILLE     CLEAR     39  32  75 CALM      30.29F
GALLATIN       CLEAR     37  23  56 N5        30.34F WCI  34
CROSSVILLE     CLOUDY    38  22  52 E5        30.30F WCI  34
$$

TNZ061-075-076-078-094-096-097-230900-
SOUTH MIDDLE TENNESSEE

CITY           SKY/WX    TMP DP  RH WIND       PRES   REMARKS
FAYETTEVILLE   MOCLDY    45  25  45 NE9       30.26F
TULLAHOMA      MOCLDY    43  19  39 CALM      30.28F
WINCHESTER     CLEAR     43  28  56 CALM      30.28F
MCMINNVILLE    CLEAR     41  27  56 NE6       30.28F
COLUMBIA       PTCLDY    41  27  56 CALM      30.27F
SHELBYVILLE    CLEAR     39  34  81 CALM      30.30F
$$

TNZ017-018-042-046-047-230900-
NORTHEAST TENNESSEE

CITY           SKY/WX    TMP DP  RH WIND       PRES   REMARKS
TRI CITIES     CLEAR     34  20  56 CALM      30.35F
ELIZABETHTON   CLOUDY    43  19  39 E9G16     30.35S
$$

TNZ012-013-036-069-073-074-230900-
CENTRAL EAST TENNESSEE

CITY           SKY/WX    TMP DP  RH WIND       PRES   REMARKS
KNOXVILLE      PTCLDY    42  20  41 N9        30.31S
OAK RIDGE      CLEAR     43  18  36 NE5       30.33F
DOWNTOWN KNOXV CLEAR     39  30  70 CALM      30.33S
GATLINBURG     CLEAR     34  28  80 CALM      30.30F
MORRISTOWN     PTCLDY    41  19  42 NE7       30.30S
JACKSBORO      PTCLDY    37  27  65 CALM      30.36S
$$

TNZ083-085-099-230900-
SOUTHEAST TENNESSEE

CITY           SKY/WX    TMP DP  RH WIND       PRES   REMARKS
CHATTANOOGA    CLOUDY    48  23  37 NE3       30.32S
$$

SKY/WX REPORTED AS FAIR MEANS FEW OR NO CLOUDS BELOW
12 THOUSAND FEET.





USA.gov is the U.S. government's official web portal to all federal, state and local government web resources and services.